Shelbyville, IN

12:18 AM EDT on September 27, 2016 (GMT -0400)
Shelbyville Municipal

Weather History for KGEZ - November, 2011

Change the Weather History Date:

Thursday, November 10, 2011

  Actual Average Record
Temperature  
Mean Temperature 39 °F 46 °F  
Max Temperature 46 °F 56 °F 72 °F (1999)
Min Temperature 31 °F 36 °F 22 °F (2008)
Degree Days  
Heating Degree Days 26 19  
Month to date heating degree days 139 172  
Since 1 July heating degree days 575 607  
Cooling Degree Days 0 0  
Month to date cooling degree days 0 0  
Year to date cooling degree days 1244 913  
Moisture  
Dew Point 29 °F    
Average Humidity 65    
Maximum Humidity 89    
Minimum Humidity 40    
Precipitation  
Precipitation 0.01 in 0.11 in 1.41 in (2002)
Month to date precipitation 1.35 1.24  
Year to date precipitation 45.53 37.80  
Sea Level Pressure  
Sea Level Pressure 30.05 in    
Wind  
Wind Speed 11 mph (West)    
Max Wind Speed 23 mph    
Max Gust Speed 31 mph    
Visibility 9 miles    
Events Snow    
T = Trace of Precipitation, MM = Missing Value Source: NWS Daily Summary

Daily Weather History Graph

Daily Weather History Graph

Search for Another Location

Airport or City:

Trip Planner

Search our weather history database for the weather conditions in past years. The results will help you decide how hot, cold, wet, or windy it might be!

Date:

Astronomy

Nov. 10, 2011 Rise Set
Actual Time 7:21 AM EST 5:32 PM EST
Civil Twilight 6:52 AM EST 6:00 PM EST
Nautical Twilight 6:20 AM EST 6:33 PM EST
Astronomical Twilight 5:49 AM EST 7:04 PM EST
Moon 5:19 PM EST (11/10) 7:13 AM EST (11/10)
Length of Visible Light 11h 07m
Length of Day
10h 10m
Full, 100% of the Moon is Illuminated
Nov 10
Full
Nov 10
Full
Nov 18
Last Quarter
Nov 25
New
Dec 2
First Quarter

Hourly Weather History & Observations

Time (EST) Temp. Windchill Dew Point Humidity Pressure Visibility Wind Dir Wind Speed Gust Speed Precip Events Conditions
12:53 AM 37.0 °F 32.4 °F 32.0 °F 82% 30.07 in 10.0 mi SW 5.8 mph - N/A   Clear
1:53 AM 35.1 °F 29.3 °F 32.0 °F 89% 30.07 in 10.0 mi SSW 6.9 mph - N/A   Clear
2:53 AM 34.0 °F 28.0 °F 30.9 °F 89% 30.06 in 10.0 mi South 6.9 mph - N/A   Clear
3:53 AM 34.0 °F 27.2 °F 30.9 °F 89% 30.06 in 10.0 mi SSW 8.1 mph - N/A   Clear
5:53 AM 33.1 °F 26.1 °F 30.0 °F 89% 30.06 in 10.0 mi SW 8.1 mph - N/A   Clear
8:53 AM 37.0 °F 31.6 °F 32.0 °F 82% 30.07 in 10.0 mi WSW 6.9 mph - N/A   Clear
9:53 AM 39.9 °F 32.1 °F 32.0 °F 73% 30.05 in 10.0 mi West 13.8 mph - N/A   Clear
10:53 AM 43.0 °F 36.0 °F 30.9 °F 62% 30.04 in 10.0 mi West 13.8 mph - N/A   Clear
11:53 AM 44.1 °F 38.1 °F 27.0 °F 51% 30.03 in 10.0 mi WNW 11.5 mph - N/A   Partly Cloudy
12:53 PM 44.1 °F 35.7 °F 26.1 °F 49% 30.01 in 10.0 mi West 20.7 mph - N/A   Mostly Cloudy
1:53 PM 44.1 °F 36.2 °F 21.9 °F 42% 30.01 in 10.0 mi West 18.4 mph - N/A   Overcast
2:53 PM 42.1 °F 33.1 °F 24.1 °F 49% 30.02 in 10.0 mi West 20.7 mph 29.9 mph N/A   Overcast
3:53 PM 39.0 °F 28.8 °F 27.0 °F 62% 30.04 in 8.0 mi West 21.9 mph 27.6 mph N/A   Overcast
4:53 PM 39.0 °F 29.9 °F 27.0 °F 62% 30.04 in 10.0 mi West 17.3 mph - N/A   Overcast
5:53 PM 37.0 °F 28.1 °F 30.0 °F 76% 30.05 in 9.0 mi WNW 15.0 mph 21.9 mph N/A   Overcast
6:53 PM 37.0 °F 29.3 °F 30.0 °F 76% 30.06 in 10.0 mi West 11.5 mph - N/A   Overcast
7:53 PM 35.1 °F 28.6 °F 30.9 °F 85% 30.06 in 10.0 mi West 8.1 mph - 0.00 in   Mostly Cloudy
8:00 PM 35.6 °F 25.5 °F 30.2 °F 81% 30.05 in 2.5 mi WNW 17.3 mph 23.0 mph 0.00 in Snow Light Snow
8:03 PM 33.8 °F 23.5 °F 30.2 °F 87% 30.05 in 1.2 mi WNW 16.1 mph 23.0 mph 0.00 in Snow Light Snow
8:15 PM 33.8 °F 26.4 °F 30.2 °F 87% 30.04 in 2.0 mi West 9.2 mph - 0.00 in Snow Light Snow
8:24 PM 33.8 °F 26.4 °F 30.2 °F 87% 30.04 in 9.0 mi West 9.2 mph - 0.00 in Snow Light Snow
8:31 PM 33.8 °F 26.4 °F 30.2 °F 87% 30.04 in 9.0 mi West 9.2 mph - 0.00 in   Overcast
8:53 PM 34.0 °F 25.5 °F 30.9 °F 89% 30.06 in 10.0 mi West 11.5 mph - 0.01 in   Overcast
9:53 PM 34.0 °F 28.0 °F 30.0 °F 85% 30.07 in 10.0 mi West 6.9 mph - N/A   Partly Cloudy
10:53 PM 32.0 °F 25.6 °F 28.9 °F 88% 30.06 in 10.0 mi WSW 6.9 mph - N/A   Clear
11:53 PM 30.9 °F 25.2 °F 28.0 °F 89% 30.06 in 10.0 mi West 5.8 mph - N/A   Clear